METEOR 2-11 DEB, 60004

Orbit data source: Space-Track

METEOR 2-11 DEB, 60004 is space debris in LEO originally from a launch on Thu, 05 Jul 1984 UTC launched from the Plesetsk Missile And Space Complex (PKMTR). Debris objects in space refer to the collection of defunct objects orbiting the Earth. Examples of debris include non-operational satellites, rocket bodies, and fragments generated from explosions, collisions, or faulty payload assembly.

Loading next visibility...
Identifier
60004, 1984-072Z
Orbit
LEO
Country
Flag of CISCIS
Related business
Manufacturer
Unknown
Mission
Spacecraft
Bus & Motor
Unknown
Mass
Unknown
Launch date (UTC)
1984-07-05 (42 years ago)
Launch vehicle
Unknown
Launch site
Plesetsk Missile And Space Complex (PKMTR)
Object type
Payload
Rocket body
Debris
Shape & HBR
Unknown shape, 0.1 m
Radar Cross Section
Small (<0.1 m²)

Expand to show TLE details & history
Last TLE update: 1 week ago

TLE from 1 week ago
0 METEOR 2-11 DEB
1 60004U 84072Z   26200.09626956  .00001410  00000-0  94216-3 0  9995
2 60004  82.5212 333.7386 0019623 181.5169 178.5945 14.00305332468656
Epoch: 2026-07-19T02:18Z
TLE epoch observation values (Epoch: 2026-07-19T02:18:37.689Z)
Latitude
0.00004°
Longitude
2.18199°
Altitude
909.928 km
Speed
7.39 km/s
True Right ascension
22h 14m 57s
True Declination
0° 00' 00"
Sunlit
Object was in full shadow at epoch
Visualization orbit readout
Latitude
Unknown
Longitude
Unknown
Altitude
Unknown
Speed
Unknown
Apparent Right ascension
Unknown
Apparent Declination
Unknown
Sunlit
N/A
Visualization observer readout
Local Sidereal Time
05:26:15
Azimuth
Unknown
Elevation
Unknown
Doppler factor
Unknown
Orbital elements
Apogee altitude
904.131 km
Perigee altitude
875.607 km
Semi-major axis
7,268.006 km
Eccentricity
0.00196
Inclination
82.5212°
RAAN
333.7386°
Arg. of periapsis
181.5169°
True anomaly
178.6°
Mean anomaly
178.5945°
Eccentric anomaly
178.59725°
Mean motion
3.50284 °/min
Orbital period
102.77 mins
BSTAR
0.00094216
Loading maneuver chart data...
Computing Atmospheric mass density...
Loading historical data...
Loading historical data...
Loading historical data...
Loading historical data...
Loading historical data...
Loading historical data...
Loading historical data...

Documentation

Showing up to 5 results
|